Starlink 30885

operational
NORAD ID: 58361 Int'l Des: 2023-177 Owner: SPXS Country: US Constellation: starlink
LEOCIRCULAR

Starlink 30885について

説明を読み込み中...

リアルタイム位置

3D地球を読み込み中...

次回通過

高度履歴

Altitude vs Time

uPlot chart will show altitude changes over time

軌道要素

1 58361U 23177L 25349.26800193 .00000041 00000-0 18140-4 0 9998
2 58361 43.0052 90.5667 0001429 269.7909 90.2769 15.02532303115521
Epoch: Dec 15, 2025 • Age: 20 hours

現在のステータス

高度 561.6 km
速度 7.58 km/s
衛星直下点 -14.67°S, 160.18°E
打ち上げ日 Nov 18, 2023
運用期間 2 years
タイプ internet

技術仕様

分類 Payload
質量 730.00 kg
乾燥質量 700.00 kg
総質量 730.00 kg
長さ 0.30 m
直径 4.10 m
スパン 29.00 m
形状 Box + pan
製造者 SPXS
バスタイプ Starlink V2M
フェーズステータス In Orbit
所有者/国 SPXS/US

大規模コンステレーション

Loading constellations...